Retour au catalogue

GAOFEN-5

ActifScienceSSO
NORAD 43461·PAYLOAD·🇨🇳 China

Lancé May 8, 2018 depuis Taiyuan Satellite Launch Center

Loading…

Prochains Passages (prochaines 24 heures)

TLE

FraisSource: Space-Track

Époque: Sep 14, 2026, 09:22 UTC

1 43461U 18043A   26257.39076704  .00000214  00000-0  54108-4 0  9991
2 43461  98.4686 230.9016 0002389 132.4855 227.6547 14.60656590444717

Suivez GAOFEN-5 en temps réel avec AllMySat

Download on the App Store